Wetbulb
58.01 58.63 59.32 59.70 60.35 60.47 60.22 59.72 58.60 58.46 58.21 58.37 58.07 57.68 57.53 56.97 55.83 56.68 54.66 59.39 60.80 60.55 56.33 58.76 55.84 56.57 55.63 53.38 54.04 52.94 45.20 42.81 45.13 45.92 48.73 52.93 51.37 55.52 57.11 53.81 54.42 56.28 60.25 60.32 59.78
56.46 56.81 57.36 57.97 58.52 59.11 59.83 59.56 58.71 58.33 58.36 58.14 57.78 57.56 57.08 56.37 54.59 54.69 60.90 61.35 60.21 60.03 56.03 56.42 53.87 54.36 52.04 52.26 51.95 48.57 44.90 45.43 49.63 49.17 48.38 50.78 51.23 52.04 54.07 50.46 50.54 51.45 57.96 60.06 59.71
55.31 55.46 55.51 56.10 57.36 58.00 58.70 59.20 58.59 58.73 58.57 58.13 57.79 57.58 56.49 56.26 54.10 56.34 60.31 60.66 59.92 58.83 56.16 57.23 55.59 52.99 50.20 51.80 51.23 49.51 45.45 48.77 49.37 50.70 51.42 50.30 50.62 53.45 51.52 48.37 51.02 49.79 55.96 59.44 60.10
55.16 54.83 54.76 54.77 55.50 57.24 57.34 57.65 58.45 58.85 58.59 58.25 58.07 57.71 56.80 56.53 47.46 58.50 63.05 60.47 60.26 57.22 54.82 55.86 53.41 50.14 48.58 48.21 51.59 47.40 49.73 49.16 49.73 51.13 50.71 49.96 51.95 50.96 54.10 53.10 55.34 54.93 60.01 59.15 58.80
54.33 54.77 54.59 54.62 54.52 56.01 56.22 56.25 57.47 58.39 58.56 58.16 58.11 57.83 56.84 53.53 53.28 59.43 62.91 61.64 57.60 55.78 54.72 54.11 51.39 50.10 47.15 49.06 50.43 48.75 49.25 49.88 50.97 50.77 50.81 52.59 51.60 51.48 53.42 58.24 60.51 60.85 59.06 58.41 58.45
54.38 54.18 54.24 54.50 54.38 55.39 55.59 55.38 55.79 57.11 58.07 57.96 57.97 57.05 55.81 48.13 58.64 58.85 58.96 60.64 57.38 55.80 55.04 54.76 52.04 51.89 49.37 49.42 49.65 50.74 50.64 50.21 50.83 50.49 51.26 50.67 51.01 53.73 52.47 51.09 59.29 59.17 58.52 58.97 59.01
54.02 54.07 53.95 54.24 54.50 54.51 54.85 54.83 54.95 55.62 57.38 57.91 57.91 57.06 53.55 50.70 58.74 59.19 58.47 57.53 59.07 57.75 54.35 55.38 54.83 50.96 52.50 50.03 52.85 51.45 47.83 49.15 49.59 50.58 50.27 51.82 48.52 48.76 52.74 54.67 57.61 57.63 57.89 58.34 58.82
54.04 53.43 53.68 53.42 53.31 53.75 53.85 54.14 54.36 55.24 57.09 57.57 57.14 56.11 49.63 57.59 59.30 58.03 58.38 56.57 57.95 59.06 57.02 56.55 55.09 53.30 52.21 53.65 51.40 48.40 48.50 43.60 48.89 50.59 51.78 50.88 44.92 50.02 52.83 53.23 55.98 57.83 58.16 58.10 59.05
54.10 53.46 53.16 52.93 52.63 52.96 53.30 53.58 53.95 55.14 56.60 57.30 54.95 54.48 48.52 57.75 55.18 57.15 57.10 54.20 55.62 57.62 56.97 56.34 54.78 51.35 51.99 47.92 45.80 46.56 41.56 43.63 46.11 51.57 50.86 50.86 46.25 50.08 51.81 53.28 53.42 56.87 57.60 57.35 58.35
54.06 53.62 52.97 52.92 52.58 52.55 52.75 52.87 53.88 55.49 56.15 57.64 56.44 49.89 52.35 49.88 54.78 56.01 56.60 55.44 53.32 54.97 53.13 52.08 50.89 47.69 48.32 46.11 39.75 43.13 43.42 45.05 44.27 49.07 50.46 48.01 46.90 48.49 51.14 54.16 53.73 56.05 57.10 56.92 57.60
53.71 53.92 53.41 52.70 52.81 52.39 51.59 52.93 51.02 51.32 53.17 50.92 50.14 49.00 49.91 55.41 55.55 53.62 55.56 53.40 52.87 52.84 47.25 49.91 45.51 43.58 46.64 48.79 48.81 47.60 45.32 44.66 47.29 50.13 48.99 47.34 48.29 50.39 52.02 54.22 55.37 55.71 56.42 56.87 56.97
52.88 53.42 53.44 53.06 52.69 52.61 51.46 48.34 50.71 54.75 46.97 53.39 53.82 53.10 54.29 54.68 50.79 52.69 56.03 49.19 49.30 46.91 49.23 47.20 43.84 48.45 49.94 50.03 48.10 47.01 45.04 44.48 47.51 49.79 48.08 46.89 46.85 50.37 52.89 53.28 54.48 55.32 55.91 56.90 57.35
52.34 52.88 53.30 52.72 52.45 50.60 48.96 49.29 55.74 57.44 46.70 47.20 49.52 48.21 50.85 52.67 49.36 50.77 53.41 49.68 47.83 46.88 47.11 45.04 48.03 50.99 49.11 48.29 45.97 46.14 44.36 44.81 45.38 47.97 48.64 47.18 44.80 47.60 50.65 53.61 54.47 56.34 56.95 57.87 57.99
51.72 52.55 52.43 52.26 47.49 50.20 47.93 53.84 55.07 57.84 41.20 40.80 45.65 49.26 49.91 50.90 46.36 53.23 55.00 50.04 48.36 45.42 46.79 47.16 50.33 49.38 48.09 46.65 47.51 43.65 48.09 47.79 46.34 44.77 40.29 47.57 37.34 46.04 48.63 49.69 52.73 54.32 56.13 56.15 57.97
51.76 52.23 52.09 51.45 50.17 49.18 53.40 56.46 58.41 55.54 27.27 43.77 46.47 54.83 52.34 47.65 47.66 48.64 54.14 51.55 45.43 46.52 47.13 45.48 47.43 47.29 46.26 46.55 48.91 46.39 49.97 48.47 46.96 44.53 44.32 44.51 41.37 45.20 48.39 47.14 49.30 53.37 55.85 56.44 57.28
51.66 52.04 52.09 50.11 50.01 51.10 54.42 52.88 54.64 39.03 27.78 41.41 48.92 47.07 47.08 47.12 46.72 49.38 50.09 53.25 51.13 47.40 48.76 47.47 51.53 49.57 48.67 49.65 49.99 50.29 47.98 47.53 47.19 44.65 38.27 43.23 42.52 42.23 45.44 47.81 49.67 53.30 55.88 57.49 57.42
51.28 51.56 51.04 51.24 46.12 53.50 54.52 48.84 37.31 30.17 41.05 39.48 44.17 46.98 45.67 45.28 45.21 46.43 45.74 46.22 43.44 39.97 41.61 45.34 46.35 49.72 50.23 46.99 49.50 48.19 44.91 38.08 36.63 36.94 36.84 45.42 42.79 44.89 48.18 50.35 51.30 51.29 55.19 57.21 58.11
50.60 50.72 50.28 50.88 52.62 52.60 51.49 40.45 29.87 37.28 38.35 46.05 44.70 46.61 43.48 46.35 45.49 45.59 45.01 42.83 46.76 44.63 42.12 39.74 38.69 46.76 49.72 47.77 45.74 45.98 44.76 39.28 31.98 31.68 36.92 43.58 39.61 43.74 50.25 51.96 51.99 52.64 54.94 56.33 57.62
50.38 49.68 48.37 50.43 52.90 53.12 42.75 32.23 32.61 38.25 42.33 41.04 44.64 42.75 43.34 45.75 45.44 45.02 44.20 43.74 45.59 46.34 41.26 40.14 40.63 48.23 49.59 49.76 48.68 46.44 43.49 47.88 40.96 41.51 37.83 38.99 45.26 48.36 50.28 49.47 50.54 51.74 53.61 54.63 55.74
47.11 46.43 45.63 52.59 53.79 48.33 37.39 32.33 36.73 42.80 43.12 43.66 38.39 43.51 41.11 43.53 43.01 43.25 43.29 46.60 45.07 47.28 48.87 44.70 40.72 47.08 48.33 50.00 49.24 47.17 49.89 42.14 43.40 32.79 32.77 38.71 40.79 41.85 46.38 47.89 49.95 49.96 52.08 54.05 56.76
45.33 39.49 46.94 52.27 51.78 41.81 31.91 33.70 38.81 44.01 44.53 41.64 40.36 40.30 40.99 42.98 44.02 42.41 42.80 45.70 47.31 47.34 48.51 46.87 44.80 44.77 47.99 45.13 44.18 45.06 44.71 46.53 45.70 43.01 36.94 35.31 39.10 47.94 47.72 49.60 49.33 51.47 52.39 54.07 55.59
42.78 34.62 47.25 50.91 36.94 37.47 32.99 37.81 41.04 40.98 44.74 43.62 44.07 42.82 42.38 43.60 43.70 42.74 42.24 45.19 48.40 47.60 44.51 47.44 46.05 41.32 43.51 48.25 49.61 47.90 45.87 47.03 41.09 39.54 42.11 40.26 40.02 50.01 50.21 51.06 51.74 51.55 52.88 54.70 55.60
38.43 38.85 47.19 48.16 31.68 32.03 37.73 37.47 40.37 40.03 42.31 43.03 41.69 44.50 47.03 45.02 41.38 44.88 44.71 49.14 50.51 47.04 44.90 47.30 42.99 38.92 40.26 45.38 47.92 44.59 46.80 47.26 47.32 46.19 41.18 36.94 40.04 50.61 51.00 50.99 52.02 52.77 52.74 53.78 54.84
38.74 32.15 39.95 42.10 42.19 37.28 35.37 35.55 35.90 41.72 41.62 44.15 43.16 44.87 44.72 43.42 46.93 44.12 44.32 47.04 49.97 49.50 47.82 48.28 45.85 42.70 38.19 41.97 45.23 42.96 44.86 47.34 46.48 40.57 41.80 42.20 43.73 48.25 48.94 49.71 50.79 51.90 52.76 53.44 54.60
38.56 35.88 40.47 32.76 34.97 38.17 38.06 38.03 36.24 35.55 41.37 43.86 42.17 42.13 42.38 40.66 42.71 43.16 46.28 45.37 47.98 48.23 48.86 49.27 42.79 44.88 44.59 45.59 45.56 44.93 44.11 44.29 42.92 44.90 41.71 43.88 43.53 46.64 49.26 49.98 51.68 54.03 53.75 53.17 53.65
33.06 37.99 41.60 39.14 38.05 36.59 37.32 36.63 36.88 37.69 39.14 38.30 40.19 42.79 42.99 42.28 43.47 41.39 44.93 44.80 43.65 46.84 46.20 48.01 42.83 44.62 42.51 45.16 44.92 43.35 45.14 45.03 44.69 44.82 44.73 45.50 45.04 50.13 50.76 51.18 50.76 52.52 52.60 52.49 53.70
41.65 44.64 41.78 37.38 37.52 34.72 35.93 38.23 37.77 40.58 41.38 42.64 42.31 43.07 41.38 42.95 46.89 48.89 48.09 48.46 47.67 46.61 45.26 44.93 42.96 41.34 37.33 43.56 43.09 37.50 43.73 44.60 45.32 46.65 45.92 42.33 46.83 49.59 48.90 50.00 51.16 52.00 52.12 52.55 54.70
MSLP
1020.08 1019.88 1019.67 1019.42 1019.08 1018.80 1018.61 1018.54 1018.16 1017.95 1017.52 1017.24 1016.90 1016.30 1015.66 1015.03 1014.05 1012.55 1011.18 1009.61 1009.33 1009.87 1010.09 1009.41 1009.25 1008.46 1008.02 1007.23 1006.21 1005.90 1005.43 1003.93 1002.98 1002.81 1003.16 1003.37 1002.82 1002.98 1004.35 1005.29 1006.99 1009.72 1010.33 1010.52 1011.16
1019.94 1019.87 1019.67 1019.39 1019.15 1018.85 1018.64 1018.36 1018.08 1017.77 1017.54 1017.04 1016.65 1016.36 1015.54 1014.74 1013.52 1011.00 1009.35 1008.98 1009.46 1009.85 1009.77 1008.70 1008.08 1007.63 1007.14 1006.28 1005.60 1005.48 1004.70 1003.45 1002.99 1002.52 1002.27 1002.18 1002.46 1002.66 1004.37 1006.07 1007.73 1008.41 1011.72 1012.25 1012.17
1019.95 1019.81 1019.57 1019.43 1019.11 1018.86 1018.57 1018.31 1018.02 1017.65 1017.45 1017.05 1016.53 1016.14 1015.40 1014.67 1012.34 1009.10 1009.40 1009.06 1009.41 1009.75 1009.36 1008.29 1007.52 1006.93 1006.56 1005.70 1004.88 1004.68 1004.09 1003.25 1002.75 1002.31 1002.37 1002.35 1002.29 1002.70 1003.67 1006.32 1007.82 1009.59 1010.81 1012.02 1012.00
1019.74 1019.70 1019.53 1019.30 1019.04 1018.76 1018.36 1018.18 1017.92 1017.53 1017.31 1017.03 1016.59 1016.06 1015.19 1014.18 1010.96 1008.67 1009.10 1009.08 1009.35 1009.33 1009.23 1008.14 1007.44 1006.97 1006.25 1005.26 1004.22 1003.99 1003.65 1003.35 1002.76 1002.26 1002.40 1002.47 1002.79 1003.32 1004.41 1006.32 1007.21 1008.99 1010.86 1011.35 1011.90
1019.45 1019.40 1019.36 1019.18 1018.92 1018.68 1018.27 1017.95 1017.80 1017.37 1016.98 1016.95 1016.65 1016.16 1015.18 1012.37 1009.55 1008.96 1009.08 1009.22 1009.16 1009.14 1008.53 1007.82 1007.17 1006.54 1005.79 1004.82 1003.87 1003.44 1003.48 1003.18 1002.53 1002.34 1002.32 1002.47 1003.45 1004.17 1006.43 1006.48 1007.74 1009.48 1010.49 1010.89 1011.48
1019.25 1019.15 1019.02 1018.89 1018.68 1018.54 1018.22 1017.82 1017.49 1017.15 1016.84 1016.62 1016.56 1016.47 1014.96 1011.83 1008.40 1007.61 1008.13 1008.56 1008.34 1008.42 1007.89 1007.50 1006.67 1006.07 1005.48 1004.84 1004.07 1003.46 1003.11 1002.96 1002.66 1002.27 1002.06 1002.63 1004.06 1005.09 1008.30 1008.95 1008.25 1009.46 1009.91 1009.97 1010.65
1018.94 1018.97 1018.72 1018.67 1018.44 1018.24 1017.99 1017.77 1017.20 1016.68 1016.66 1016.46 1016.39 1016.07 1013.97 1010.00 1008.28 1007.37 1007.76 1007.72 1007.75 1007.34 1007.20 1006.79 1006.39 1005.97 1005.60 1004.91 1004.11 1003.74 1003.46 1002.95 1002.45 1002.17 1002.02 1002.69 1004.26 1006.76 1007.81 1009.69 1010.08 1009.65 1009.47 1009.32 1009.79
1018.58 1018.74 1018.59 1018.29 1018.25 1018.09 1017.58 1017.51 1016.92 1016.37 1016.34 1016.10 1016.11 1015.40 1012.08 1008.42 1007.43 1007.30 1007.38 1007.33 1007.01 1006.86 1006.86 1006.42 1006.17 1006.04 1005.86 1005.18 1004.34 1003.71 1003.40 1002.58 1001.76 1001.67 1002.06 1002.63 1004.50 1007.13 1007.29 1008.71 1009.10 1008.49 1008.82 1008.82 1009.36
1018.44 1018.28 1018.31 1018.10 1018.00 1017.86 1017.50 1016.85 1016.47 1016.01 1015.91 1015.72 1015.53 1013.93 1009.95 1007.08 1006.97 1006.75 1006.33 1006.69 1006.67 1006.72 1006.60 1006.64 1006.29 1006.17 1005.88 1005.23 1004.28 1003.27 1002.62 1001.65 1001.21 1001.64 1001.96 1002.78 1004.81 1007.08 1006.55 1007.56 1008.22 1007.16 1007.67 1008.00 1008.66
1018.10 1018.03 1017.92 1017.86 1017.79 1017.64 1017.16 1016.39 1015.13 1015.65 1015.14 1014.49 1013.94 1012.85 1008.81 1006.44 1005.06 1005.51 1006.01 1006.50 1006.25 1006.57 1006.70 1006.71 1006.42 1006.04 1005.38 1004.76 1003.34 1002.07 1001.91 1001.41 1000.69 1001.54 1001.73 1002.37 1004.90 1005.56 1005.97 1005.86 1006.25 1005.76 1006.78 1007.39 1008.21
1017.76 1017.57 1017.57 1017.67 1017.56 1017.39 1017.16 1015.09 1014.51 1014.34 1013.76 1011.23 1010.05 1008.87 1006.71 1005.44 1005.01 1005.18 1005.11 1006.15 1006.16 1006.10 1006.03 1006.13 1005.92 1004.78 1004.08 1003.38 1002.97 1001.93 1001.80 1001.22 1000.91 1001.32 1001.49 1002.08 1002.68 1004.28 1004.83 1003.78 1004.19 1004.53 1005.46 1006.52 1007.29
1017.23 1017.16 1017.19 1017.41 1017.37 1017.21 1017.13 1015.38 1011.76 1011.83 1010.79 1009.62 1008.72 1007.88 1007.09 1006.36 1005.30 1004.67 1004.67 1005.41 1005.57 1005.06 1005.43 1005.47 1004.42 1003.91 1003.31 1002.36 1002.28 1002.27 1001.84 1001.20 1000.84 1001.13 1001.57 1001.57 1001.89 1002.77 1002.87 1002.26 1002.56 1003.16 1004.15 1005.19 1006.21
1016.74 1016.85 1016.97 1017.15 1017.23 1016.98 1016.07 1014.41 1012.19 1011.65 1010.38 1007.67 1006.27 1005.17 1005.21 1006.02 1004.78 1004.19 1003.99 1004.48 1004.53 1004.60 1004.22 1004.01 1002.87 1002.76 1002.50 1001.97 1002.32 1002.12 1001.67 1001.79 1001.97 1001.52 1001.51 1001.58 1001.48 1001.53 1001.44 1001.54 1001.80 1002.13 1002.92 1004.21 1005.07
1016.32 1016.61 1016.81 1017.06 1017.33 1015.07 1014.29 1013.10 1013.04 1012.40 1009.95 1005.06 1003.36 1002.20 1003.23 1004.39 1003.63 1003.88 1003.24 1003.82 1003.83 1003.74 1003.70 1002.95 1002.33 1001.66 1001.54 1001.79 1001.86 1001.50 1001.40 1001.68 1001.65 1001.70 1001.47 1002.25 1001.93 1001.54 1001.11 1000.74 1001.23 1001.52 1002.18 1003.28 1004.28
1015.80 1016.09 1016.34 1016.65 1014.79 1013.99 1012.44 1012.29 1011.61 1012.29 1008.64 1001.85 1000.59 1001.67 1001.78 1002.58 1001.99 1002.22 1002.73 1003.04 1002.96 1002.71 1003.07 1001.81 1001.43 1001.26 1001.36 1001.35 1001.49 1001.29 1001.66 1002.06 1002.05 1002.12 1001.96 1001.78 1002.20 1000.95 1000.80 1000.17 1000.33 1000.80 1001.72 1002.82 1003.67
1015.16 1015.52 1015.88 1016.28 1015.91 1014.05 1013.42 1013.74 1012.65 1011.53 1005.75 1001.63 1001.18 1001.68 1001.81 1002.23 1002.15 1000.89 1002.09 1002.44 1002.53 1002.53 1001.87 1001.38 1000.85 1000.88 1000.74 1001.12 1001.18 1001.44 1001.70 1002.24 1002.60 1002.72 1002.37 1001.54 1001.46 1001.13 1000.32 999.99 999.29 999.77 1000.83 1001.84 1002.77
1014.45 1014.88 1015.29 1015.14 1014.73 1013.91 1014.19 1014.57 1012.74 1008.25 1003.47 1001.08 1000.49 1001.10 1001.48 1001.37 1001.88 1001.26 1001.47 1001.56 1001.45 1001.71 1001.27 1001.19 1000.58 1000.33 1000.58 1000.77 1000.99 1001.55 1002.04 1002.43 1002.94 1002.94 1002.40 1001.84 1001.05 999.59 999.99 999.81 999.29 998.98 999.91 1000.74 1001.42
1013.74 1014.27 1014.56 1014.48 1014.60 1014.19 1014.49 1014.52 1010.31 1005.09 1002.74 999.99 999.21 1000.11 1000.82 1000.66 1001.12 1001.29 1000.52 1000.94 1001.20 1001.12 1001.29 1000.97 1000.43 999.80 1000.12 1000.24 1000.44 1001.32 1001.85 1002.30 1003.61 1005.01 1004.14 1003.07 1000.86 999.31 999.00 998.93 998.96 999.16 999.33 999.81 1000.44
1013.11 1013.71 1013.80 1013.91 1014.29 1014.44 1014.49 1012.22 1008.39 1003.98 1001.68 1001.19 1000.15 999.70 1000.32 1000.03 1000.14 1000.62 1000.30 1000.03 1000.25 1000.47 1000.51 1000.16 999.72 999.78 999.83 1000.30 1000.47 1000.70 1001.06 1001.59 1003.75 1005.20 1005.01 1003.27 1000.51 999.01 998.69 998.68 998.89 999.16 999.35 999.63 1000.06
1012.53 1012.94 1012.57 1012.86 1013.70 1014.41 1013.96 1010.61 1006.75 1004.93 1002.26 1001.21 1000.20 999.53 999.44 999.37 999.64 999.88 999.74 999.56 999.76 1000.16 1000.43 999.89 999.47 999.04 999.25 999.86 1000.03 1000.07 1000.68 1001.16 1002.23 1004.08 1003.10 1001.66 1000.33 998.99 998.67 998.57 998.81 999.12 999.37 999.66 1000.00
1011.89 1011.82 1010.68 1011.78 1013.31 1013.37 1011.01 1007.46 1005.74 1004.64 1003.09 1001.90 1000.47 999.61 999.27 998.63 998.90 999.13 999.30 999.65 999.62 999.94 1000.83 999.85 999.45 998.81 998.64 998.76 999.25 999.90 1000.24 1000.89 1001.13 1001.74 1002.21 1001.84 1001.23 1001.00 999.47 998.60 998.97 999.02 999.44 999.90 1000.13
1010.37 1009.94 1009.49 1010.64 1012.07 1010.55 1007.58 1006.37 1006.56 1004.65 1003.48 1002.40 1001.33 999.95 999.08 998.75 998.29 998.61 998.79 999.09 998.63 1000.26 999.71 999.50 999.36 998.66 998.42 998.72 999.30 999.24 999.68 1000.12 1000.50 1001.40 1001.93 1001.87 1001.16 1000.35 999.58 998.76 998.90 999.14 999.36 999.76 1000.14
1008.74 1009.39 1009.12 1009.37 1008.81 1007.33 1007.24 1006.28 1006.46 1005.53 1003.34 1002.43 1001.67 1000.08 999.69 999.25 998.63 998.70 998.83 999.12 999.12 999.72 999.91 999.35 999.46 998.93 999.39 999.05 998.93 998.91 999.08 999.56 1000.04 1000.52 1000.81 1001.49 1000.46 999.25 998.80 998.55 998.59 998.79 998.97 999.37 999.98
1007.63 1007.81 1008.36 1008.09 1006.93 1006.03 1005.69 1005.29 1005.67 1005.39 1003.94 1002.57 1001.77 1000.91 1000.22 999.94 998.83 999.23 998.84 999.44 999.38 999.89 999.96 999.65 998.97 998.55 998.48 998.54 998.69 998.59 998.56 999.07 999.41 999.64 1000.05 999.80 999.65 998.80 998.50 998.71 998.48 998.40 998.59 999.01 999.61
1005.12 1004.45 1003.79 1004.26 1004.32 1003.73 1005.51 1004.59 1004.44 1004.23 1003.88 1003.16 1002.23 1001.40 1001.09 1000.13 999.95 999.22 999.16 999.68 999.77 999.77 999.64 999.43 998.76 998.86 998.73 998.32 998.25 998.17 998.27 998.53 998.32 998.69 999.01 999.17 998.65 998.17 997.65 997.60 997.90 998.21 998.57 999.20 999.87
1002.91 1001.75 1002.38 1002.06 1004.36 1004.83 1004.17 1003.78 1002.79 1002.71 1002.76 1002.58 1002.05 1001.39 1001.76 1001.09 1000.73 1000.21 999.80 999.74 999.92 1000.13 999.97 999.63 999.47 999.52 999.19 998.71 998.12 997.83 997.35 997.54 997.77 997.89 997.77 997.81 997.54 997.40 997.18 997.22 997.78 997.97 998.65 999.52 1000.09
1001.31 1001.14 1001.02 1002.19 1002.53 1004.00 1002.53 1001.80 1001.69 1001.90 1001.65 1001.59 1001.59 1001.36 1001.50 1002.37 1002.43 1001.20 1000.87 1000.48 1000.21 1000.18 1000.14 1000.18 999.98 1000.00 999.85 999.46 998.74 997.60 997.15 996.72 996.83 996.86 996.92 996.76 996.86 996.95 996.82 996.93 997.16 997.67 998.55 999.54 1000.54
Wind_Speed
11 12 13 13 13 10 10 11 10 11 11 14 17 18 20 23 26 21 15 7 7 7 3 12 14 14 14 15 18 12 12 14 13 11 11 9 8 10 4 7 19 21 15 9 14
12 13 14 13 12 12 12 12 11 11 11 12 15 19 21 20 23 21 6 10 9 6 8 12 11 13 11 17 12 11 12 19 10 10 12 8 14 5 4 14 11 24 4 9 12
12 13 14 14 13 12 12 12 12 11 12 12 14 17 22 20 15 5 3 8 7 7 13 16 13 13 13 17 14 14 15 17 15 7 10 15 16 8 10 5 8 10 7 11 10
9 12 13 14 14 13 12 12 13 12 11 12 14 16 24 8 8 6 9 7 5 8 12 14 11 14 14 19 16 15 12 15 16 13 11 12 13 16 5 5 13 14 12 11 11
10 9 11 13 14 13 12 12 13 13 11 12 14 15 14 9 16 8 6 7 7 9 14 13 14 15 15 19 15 12 14 13 18 11 14 12 10 15 10 18 14 15 11 13 10
11 11 9 10 13 13 13 13 13 13 13 10 13 15 13 21 14 7 7 10 12 13 14 14 14 15 17 17 18 15 14 14 16 19 11 12 4 5 19 28 13 11 11 11 11
10 11 10 9 10 12 14 15 13 13 13 12 13 10 16 26 14 17 7 12 15 15 14 16 15 16 13 16 15 16 16 17 18 17 12 14 9 3 7 16 8 11 9 9 8
12 12 12 9 10 12 13 16 16 15 12 12 12 11 14 13 15 19 18 15 14 13 15 16 12 11 16 16 18 17 17 17 13 6 13 12 7 5 9 4 11 12 11 11 13
14 12 11 10 11 12 14 17 19 19 12 10 8 10 16 8 18 18 15 17 14 13 11 12 9 13 15 16 15 16 16 19 16 10 14 8 3 8 16 11 16 12 12 10 16
12 13 12 10 11 11 14 21 19 9 10 12 11 11 14 13 11 15 17 16 15 12 13 13 8 14 15 14 15 16 11 20 12 9 12 11 15 14 12 21 25 15 14 11 17
11 11 12 11 10 10 13 13 6 8 12 11 11 10 18 9 7 8 14 17 18 18 16 17 13 16 19 20 22 16 13 15 5 4 4 9 9 17 20 22 18 15 16 16 13
13 10 11 11 9 8 9 9 9 7 12 21 25 24 25 22 9 15 15 17 20 21 19 16 19 20 21 21 7 12 14 15 2 2 3 11 7 22 18 13 11 15 15 15 16
12 11 10 9 7 8 15 22 18 11 10 18 25 24 29 24 24 18 21 21 23 21 21 21 20 21 21 10 9 13 14 2 18 4 13 13 14 10 2 11 8 14 15 18 16
13 11 10 3 5 14 15 17 18 13 9 14 15 9 27 23 25 26 20 21 16 23 22 24 23 13 16 10 13 14 9 11 11 10 7 6 10 11 11 11 13 11 12 13 16
14 12 11 14 10 8 5 14 10 4 8 6 12 4 8 22 6 24 27 23 26 22 18 20 20 19 14 15 15 13 6 11 10 12 14 10 6 10 14 15 14 14 12 14 11
16 13 12 9 12 18 14 13 4 8 13 7 10 9 12 21 26 14 26 23 21 24 20 22 16 19 18 15 13 10 9 9 12 11 11 14 6 9 5 10 11 18 17 15 18
18 15 14 11 11 14 4 6 8 13 10 12 14 11 16 18 25 21 27 25 23 23 20 18 22 17 15 16 18 9 10 8 6 8 8 6 9 7 12 12 14 8 19 19 16
19 16 15 12 12 12 2 6 16 21 30 5 19 16 18 17 20 24 21 24 24 21 14 16 17 24 13 16 14 14 14 8 6 3 5 12 7 6 10 10 5 1 2 9 16
21 10 12 12 14 7 3 15 17 26 24 29 8 11 15 17 11 21 25 22 23 24 22 20 21 20 17 15 18 13 14 16 10 9 5 6 15 6 9 5 8 4 2 7 6
10 10 14 14 14 8 5 17 29 28 32 21 28 14 13 17 16 17 22 18 22 24 18 16 13 22 22 17 18 16 8 11 7 5 6 6 7 3 9 6 8 8 6 6 2
10 7 11 17 10 7 12 30 35 23 31 23 25 20 23 16 17 17 14 16 19 17 27 25 15 15 18 17 18 11 11 11 13 7 1 4 2 2 7 6 7 6 7 5 5
8 10 10 17 12 8 26 25 29 28 30 29 24 25 18 20 13 19 20 16 15 20 23 24 9 10 16 17 16 17 17 16 6 8 5 2 5 4 11 5 8 7 6 4 4
7 5 9 16 16 20 21 33 26 30 25 24 29 21 14 19 14 15 14 10 2 19 20 20 16 10 15 16 17 19 14 14 14 11 11 9 5 2 2 3 1 3 7 9 7
7 8 7 15 17 27 26 27 28 32 31 24 23 22 19 16 12 8 17 5 5 7 22 16 16 15 11 15 13 14 16 19 18 7 7 9 11 16 3 9 10 11 12 7 9
8 10 11 18 26 28 25 14 28 31 29 23 23 20 23 16 15 15 11 10 3 3 5 4 16 17 17 19 21 21 19 19 19 13 16 12 15 15 12 7 6 4 8 5 3
7 10 16 10 19 26 25 28 25 31 29 34 26 18 17 18 16 19 18 9 5 7 9 6 12 17 16 19 19 14 19 22 20 19 16 18 17 14 11 8 8 6 8 4 5
5 13 13 17 22 17 27 30 31 23 27 30 29 20 11 21 5 10 8 5 4 3 10 10 7 12 15 17 18 17 17 14 14 15 15 15 11 11 12 10 7 6 7 6 9
Wind_Direction
339 338 335 340 324 301 301 304 312 317 323 324 325 322 319 316 312 295 257 269 175 154 158 245 218 238 238 259 260 277 268 267 310 296 128 167 218 223 14 302 50 23 17 78 103
339 336 333 330 332 330 307 304 309 313 319 320 323 319 316 321 306 285 269 119 132 160 224 230 223 228 241 245 240 237 265 277 296 323 305 247 229 229 228 46 19 5 60 124 136
326 333 333 330 328 324 319 311 308 310 312 316 320 319 313 317 297 80 178 141 139 191 249 284 262 282 252 265 243 251 257 290 312 321 318 315 309 187 248 56 114 207 229 166 164
312 320 323 325 323 321 321 314 303 302 306 313 318 321 312 292 292 100 151 137 165 225 238 263 260 257 254 267 242 246 272 270 269 304 302 286 298 323 53 172 217 212 167 140 122
293 300 313 322 322 319 313 309 307 302 298 306 315 321 322 284 258 119 153 158 185 205 229 247 248 250 254 262 273 263 262 267 275 277 274 292 314 296 56 126 137 123 140 128 142
295 293 295 308 318 317 313 307 305 302 298 300 305 316 278 267 257 221 228 179 221 211 231 245 253 254 269 291 291 287 301 293 287 283 270 266 295 42 20 344 106 137 149 149 146
282 292 287 295 311 311 312 307 299 298 301 295 294 293 270 252 278 292 265 250 222 216 232 238 253 267 277 261 267 264 274 274 264 259 263 255 229 46 170 180 190 144 156 138 147
275 282 289 295 302 305 306 304 298 291 285 281 285 278 261 264 264 247 242 238 238 229 233 269 252 271 271 284 285 275 263 266 279 223 257 239 288 213 154 225 232 161 154 153 165
281 271 282 287 295 300 301 298 291 280 266 264 266 217 267 238 228 237 236 228 218 234 234 251 266 247 255 252 260 246 252 256 250 217 256 201 71 341 328 274 267 169 157 163 133
277 277 270 277 286 297 305 293 274 274 231 243 240 285 239 253 245 208 213 228 220 208 219 231 234 235 238 251 251 266 239 266 247 202 248 267 151 193 218 235 232 173 151 153 151
264 271 275 273 283 298 316 305 214 198 210 221 195 237 296 218 237 219 193 203 227 207 216 210 221 231 233 230 257 283 304 287 32 344 285 282 253 170 221 234 156 163 159 161 178
264 265 273 268 272 299 293 261 286 356 288 234 246 259 259 273 273 218 190 192 209 211 208 223 222 237 241 255 301 284 266 277 201 186 262 291 289 134 183 199 180 158 173 156 171
256 257 256 261 296 278 255 257 286 329 271 264 245 238 236 232 241 250 187 200 207 214 207 222 224 217 245 249 244 247 257 309 285 262 262 255 266 311 207 161 211 169 172 159 182
237 240 239 198 265 248 249 248 250 288 276 260 229 246 223 222 230 234 225 201 212 215 225 223 238 245 226 231 227 251 227 298 258 266 272 73 287 254 241 185 185 193 166 165 175
226 222 220 196 293 307 50 350 206 213 273 287 178 115 220 196 172 204 228 198 217 207 217 229 223 236 233 236 240 261 147 266 294 276 287 233 251 261 204 218 197 182 180 169 194
222 215 214 218 252 264 286 332 243 230 235 239 138 190 193 201 225 207 200 216 219 236 225 231 228 229 228 233 247 273 268 240 269 262 263 271 247 235 279 291 214 183 177 187 190
217 212 211 218 228 245 263 328 201 225 210 237 172 188 208 200 216 236 187 204 205 212 229 226 241 222 227 228 232 214 245 249 247 249 247 287 279 230 168 244 257 159 175 188 193
212 205 219 222 239 266 111 218 226 221 233 101 186 176 210 207 210 223 213 207 210 216 211 216 223 226 209 237 208 212 228 235 189 262 345 338 253 142 171 174 84 175 273 188 184
207 210 223 206 228 253 220 220 220 232 200 242 223 211 211 223 213 210 225 209 207 214 217 207 228 216 209 212 243 210 215 246 133 231 217 226 255 172 159 164 156 198 131 199 207
200 213 217 200 201 215 217 242 233 240 270 259 230 196 218 205 202 202 209 216 216 204 232 251 214 230 197 200 226 242 248 233 187 175 233 209 268 320 164 162 128 174 117 92 95
193 210 186 190 184 202 215 218 228 232 250 259 264 258 238 243 206 211 216 222 216 199 227 244 256 219 199 200 208 211 229 241 243 243 305 287 87 236 326 138 169 110 128 123 101
184 215 185 157 194 213 226 223 229 228 240 257 276 254 253 254 229 219 217 229 190 210 215 236 246 218 219 190 218 237 208 233 210 227 201 291 257 95 315 203 168 195 164 175 142
186 167 201 169 202 214 226 233 236 237 247 245 254 261 244 270 244 230 211 270 215 173 236 236 237 226 214 210 208 226 229 238 238 235 237 180 262 161 278 358 244 212 213 175 167
166 165 170 196 217 216 210 221 225 234 246 249 252 270 249 262 255 240 206 249 92 234 225 257 230 233 204 221 205 222 228 222 233 227 266 214 227 252 101 274 231 219 208 198 172
175 190 181 186 209 213 210 212 220 219 232 248 249 254 263 247 240 258 236 207 264 290 300 258 229 232 237 246 196 218 215 237 247 226 215 227 251 251 264 191 279 68 66 106 178
164 199 184 206 209 206 217 217 230 212 219 228 244 237 230 261 243 240 223 170 172 232 246 278 222 238 243 246 263 234 228 209 224 243 247 243 237 251 271 253 228 164 144 203 177
180 224 167 210 185 194 212 217 221 222 221 221 230 233 227 257 2 5 12 5 79 306 203 234 215 226 239 243 260 248 242 246 233 233 237 242 249 262 269 272 252 189 183 174 125